Weather History for New York, NY

Change the Weather History Date:

Wednesday, November 7, 2012

  Actual Average Record
Temperature  
Mean Temperature 39 °F 51 °F  
Max Temperature 44 °F 58 °F 69 °F (1996)
Min Temperature 33 °F 44 °F 32 °F (1962)
Degree Days  
Heating Degree Days 26 14  
Month to date heating degree days 145 92  
Since 1 July heating degree days 327 364  
Cooling Degree Days 0 0  
Month to date cooling degree days 0 0  
Year to date cooling degree days 1511 1213  
Moisture  
Dew Point 32 °F    
Average Humidity 77    
Maximum Humidity 100    
Minimum Humidity 54    
Precipitation  
Precipitation 0.76 in 0.11 in 3.07 in (1963)
Month to date precipitation 0.76 0.79  
Year to date precipitation 31.82 38.55  
Snow  
Snow 1.10 in 0.00 in - ()
Month to date snowfall 1.1 0.0  
Since 1 July snowfall 1.1 0.0  
Snow Depth 0.00 in    
Sea Level Pressure  
Sea Level Pressure 29.87 in    
Wind  
Wind Speed 20 mph (North)    
Max Wind Speed 30 mph    
Max Gust Speed 43 mph    
Visibility 4 miles    
Events Fog , Rain , Snow    
T = Trace of Precipitation, MM = Missing Value Source: NWS Daily Summary

Daily Weather History Graph

Daily Weather History Graph

Search for Another Location

Airport:

Trip Planner

Search our weather history database for the weather conditions in past years. The results will help you decide how hot, cold, wet, or windy it might be!

Date:

Astronomy

Nov. 07, 2012 Rise Set
Actual Time 6:33 AM EST 4:44 PM EST
Civil Twilight 6:04 AM EST 5:13 PM EST
Nautical Twilight 5:31 AM EST 5:45 PM EST
Astronomical Twilight 4:59 AM EST 6:18 PM EST
Moon No Moon Rise 12:54 PM EST (11/7)
Length of Visible Light 11h 08m
Length of Day
10h 10m
Last Quarter, 43% of the Moon is Illuminated
Nov 7
Last Quarter
Nov 13
New
Nov 20
First Quarter
Nov 28
Full
Dec 6
Last Quarter

Hourly Weather History & Observations

Time (EST) Temp. Windchill Dew Point Humidity Pressure Visibility Wind Dir Wind Speed Gust Speed Precip Events Conditions
12:51 AM 39.9 °F 32.1 °F 28.0 °F 63% 30.06 in 10.0 mi NNE 13.8 mph - N/A   Overcast
1:51 AM 41.0 °F 31.6 °F 28.0 °F 60% 30.04 in 10.0 mi NE 20.7 mph 31.1 mph N/A   Overcast
2:51 AM 39.0 °F 29.9 °F 24.1 °F 55% 30.01 in 10.0 mi NNE 17.3 mph - N/A   Overcast
3:51 AM 39.0 °F 29.9 °F 27.0 °F 62% 30.00 in 10.0 mi NNE 17.3 mph 23.0 mph N/A   Overcast
4:51 AM 39.0 °F 30.3 °F 27.0 °F 62% 29.97 in 10.0 mi NNE 16.1 mph 25.3 mph N/A   Overcast
5:51 AM 39.0 °F 29.9 °F 28.9 °F 67% 29.96 in 10.0 mi NNE 17.3 mph 23.0 mph N/A   Overcast
6:51 AM 39.2 °F 30.2 °F 28.4 °F 65% 29.95 in 10.0 mi NNE 17.3 mph 28.8 mph N/A   Overcast
7:51 AM 41.0 °F 31.6 °F 30.0 °F 65% 29.95 in 10.0 mi NE 20.7 mph 29.9 mph N/A   Overcast
8:51 AM 42.1 °F 33.1 °F 30.0 °F 62% 29.93 in 10.0 mi NNE 20.7 mph 32.2 mph N/A   Overcast
9:51 AM 43.0 °F 34.5 °F 30.0 °F 60% 29.90 in 10.0 mi NNE 19.6 mph 31.1 mph N/A   Overcast
10:51 AM 42.8 °F 33.8 °F 30.2 °F 61% 29.90 in 10.0 mi NNE 21.9 mph 29.9 mph N/A   Overcast
11:20 AM 39.2 °F 29.6 °F 39.2 °F 100% 29.88 in 4.0 mi NNE 19.6 mph 29.9 mph 0.00 in Rain Light Rain
11:51 AM 37.9 °F 29.2 °F 37.9 °F 100% 29.86 in 3.0 mi North 15.0 mph 25.3 mph 0.03 in Rain Rain
12:51 PM 37.9 °F 28.2 °F 34.9 °F 89% 29.84 in 5.0 mi North 18.4 mph 29.9 mph 0.05 in Rain , Snow Light Rain
1:47 PM 35.6 °F 25.5 °F 33.8 °F 93% 29.83 in 2.0 mi North 17.3 mph 28.8 mph 0.07 in Rain , Snow Rain
1:51 PM 35.6 °F 24.8 °F 33.8 °F 93% 29.83 in 2.0 mi North 19.6 mph 28.8 mph N/A Rain , Snow Rain
2:48 PM 35.6 °F 25.5 °F 33.8 °F 93% 29.83 in 2.0 mi North 17.3 mph 23.0 mph 0.10 in Snow Light Snow
2:51 PM 36.0 °F 26.3 °F 34.0 °F 93% 29.83 in 2.0 mi North 16.1 mph 23.0 mph 0.10 in Snow Light Snow
3:51 PM 35.1 °F 24.1 °F 33.1 °F 92% 29.83 in 2.0 mi North 19.6 mph 26.5 mph 0.16 in Snow Light Snow
3:58 PM 33.8 °F 22.8 °F 33.8 °F 100% 29.83 in 0.5 mi North 18.4 mph 27.6 mph 0.01 in Fog , Snow Snow
4:23 PM 33.8 °F 21.3 °F 33.8 °F 100% 29.81 in 0.8 mi North 24.2 mph 31.1 mph 0.05 in Snow Light Snow
4:51 PM 34.0 °F 21.8 °F 33.1 °F 96% 29.83 in 0.8 mi North 23.0 mph 34.5 mph 0.08 in Snow Light Snow
5:10 PM 33.8 °F 22.2 °F 33.8 °F 100% 29.83 in 0.8 mi North 20.7 mph 31.1 mph 0.01 in Snow Light Snow
5:27 PM 33.8 °F 21.0 °F 33.8 °F 100% 29.83 in 0.8 mi North 25.3 mph 32.2 mph 0.03 in Snow Light Snow
5:46 PM 33.8 °F 21.3 °F 33.8 °F 100% 29.84 in 0.8 mi North 24.2 mph 33.4 mph 0.04 in Snow Light Snow
5:51 PM 33.8 °F 21.3 °F 33.8 °F 100% 29.83 in 0.8 mi North 24.2 mph 34.5 mph N/A Snow Light Snow
6:34 PM 33.8 °F 21.3 °F 33.8 °F 100% 29.82 in 0.5 mi North 24.2 mph 34.5 mph 0.06 in Fog , Snow Light Snow
6:43 PM 33.8 °F 21.6 °F 33.8 °F 100% 29.82 in 0.5 mi North 23.0 mph 33.4 mph 0.08 in Fog , Snow Light Snow
6:51 PM 33.1 °F 20.3 °F 33.1 °F 100% 29.82 in 0.8 mi North 24.2 mph 33.4 mph 0.09 in Snow Light Snow
7:51 PM 34.0 °F 20.5 °F 34.0 °F 100% 29.80 in 0.8 mi North 28.8 mph 38.0 mph 0.05 in Snow Light Snow
7:58 PM 33.8 °F 21.3 °F 33.8 °F 100% 29.79 in 0.8 mi North 24.2 mph 36.8 mph 0.00 in Snow Light Snow
8:09 PM 33.8 °F 20.5 °F 33.8 °F 100% 29.80 in 0.8 mi North 27.6 mph 35.7 mph 0.00 in Snow Light Snow
8:51 PM 34.0 °F 22.4 °F 33.1 °F 96% 29.79 in 0.8 mi North 20.7 mph 33.4 mph 0.01 in Snow Light Snow
9:51 PM 34.0 °F 23.0 °F 33.1 °F 96% 29.80 in 0.8 mi North 18.4 mph 31.1 mph 0.04 in Snow Light Snow
10:47 PM 35.6 °F 24.5 °F 33.8 °F 93% 29.77 in 3.0 mi North 20.7 mph 31.1 mph 0.01 in Snow Light Snow
10:51 PM 35.1 °F 23.0 °F 33.1 °F 92% 29.78 in 3.0 mi North 24.2 mph 42.6 mph 0.01 in Snow Light Snow
11:17 PM 35.6 °F 25.9 °F 33.8 °F 93% 29.78 in 3.0 mi North 16.1 mph 28.8 mph 0.00 in Snow Light Snow
11:51 PM 35.6 °F 24.2 °F 33.8 °F 93% 29.76 in 3.0 mi NNW 21.9 mph 33.4 mph N/A Snow Light Snow